Location: Ulm
(48.3980°N, 9.9777°E)
Time: 05:14:15
(UTC+01:00)

ISS - Pass Details

Date: 14 February 2018
Orbit: 402 x 407 km, 51.6° (Epoch: 24 February)

Event Time Altitude Azimuth Distance (km) Brightness Sun altitude
Rises 18:24:19 0° 282° (WNW) 2,320 1.5 -8.0°
Reaches altitude 10° 18:27:13 10° 254° (WSW) 1,456 0.7 -8.4°
Maximum altitude 18:28:50 13° 224° (SW) 1,278 -0.4 -8.7°
Drops below altitude 10° 18:30:27 10° 194° (SSW) 1,451 -0.7 -9.0°
Sets 18:33:20 0° 166° (SSE) 2,306 0.0 -9.4°
